Aeroporto :
LOGIN :

Iscrizione | Disclaimer

   EN    FR    IT 

 










Sommario :    VFR   VFR Marginale   IFR   IFR Intensivo   IFR Molto Intensivo
Visibilità : 
Base nubi : 
>= 8 km
>= 3000ft
5 / 8 km
1000 / 3000 ft
1500m / 5 km
500 / 1000 ft
800 / 1500m
200 / 500 ft
< 800m
< 200 ft
Simboli :   Temporali  Nebbia  Neve Forte  Precipitazioni Forti  Vento > 20 kt
SIGMETs :   Varie  Temporali  Ghiacco  Turbolenza  Onda orograficha  Ceneri Vulcaniche






- Altitudine del aeroporto : 177 ft
- Codice IATA : BRI


LIBD - Palese Macchie Bari

ULTIMO METAR :
  • 151050Z 06013KT CAVOK 26/18 Q1014

METARs OBSOLETI :
  • 151020Z 05012KT CAVOK 26/17 Q1014
  • 150950Z 06013KT 030V090 CAVOK 27/18 Q1014
  • 150920Z 07015KT CAVOK 26/18 Q1014
  • 150850Z 06011KT 030V090 CAVOK 26/18 Q1014

TAF COR TAF LIBD
Valido dal 15 a 06 ore il 16 a 06 ore UTC


150641Z 1506/1606 VRB05KT 9999 SCT030
BECMG 1508/1510 09012KT
TEMPO 1513/1517 TSRA
BECMG 1518/1520 VRB05KT



MetMap, La meteo Aeronautica in un colpo d'occhio ! - Copyright ORBIFLY Dicembre 2007 - Disclaimer

ORBIFLY MET'MAP TEAM :

Programmazione e sviluppo : Alexandra Zaïnal
Concezione : Baudouin d'Aumeries
Aiuto per la programmazione : Marc-Olivier Méhu
Supporto tecnico e logistico : Manuel Goepfert
Aiuto per la traduzione : Arnaldo La Scala

Contatto : metmap@orbifly.com




FONTI E CREDITI :

   NOAA